Regional Weather Roundup
Issued by NWS

Home | Current Version | Previous Version | Graphics & Text | Print | Product List | Glossary Off
Versions: 1 2 3 4 5 6 7 8 9 10 11 12 13 14 15 16 17 18 19 20 21 22 23 24 25 26 27 28 29 30 31 32 33 34 35 36 37 38 39 40 41 42 43 44 45 46 47 48 49 50

000
ASUS43 KFSD 280402
RWRSD

WEATHER ROUNDUP FOR SOUTH DAKOTA
NATIONAL WEATHER SERVICE SIOUX FALLS SD
1100 PM CDT SAT AUG 27 2016

NOTE: "FAIR" INDICATES FEW OR NO CLOUDS BELOW 12,000 FEET WITH NO
SIGNIFICANT WEATHER AND/OR OBSTRUCTIONS TO VISIBILITY.


SDZ001>005-009-010-012>017-280500-
NORTHWEST AND NORTH CENTRAL SOUTH DAKOTA

CITY           SKY/WX    TMP DP  RH WIND       PRES   REMARKS
FAITH            N/A     70  57  63 SE16      29.91R
MOBRIDGE       MOCLDY    71  53  52 SE6       29.90R
$$

SDZ012>016-024>037-041>051-057-063-072>074-280500-
SOUTHWEST AND SOUTH CENTRAL SOUTH DAKOTA

CITY           SKY/WX    TMP DP  RH WIND       PRES   REMARKS
RAPID CTY ARPT MOCLDY    63  52  67 CALM      29.93R
PIERRE         CLEAR     70  60  70 SE9       29.89S
CUSTER         CLOUDY    59  44  57 CALM      30.08R
ELLSWORTH AFB  MOCLDY   N/A N/A N/A S7        29.92S
PHILIP         MOCLDY    66  59  78 SE7       29.91R
PINE RIDGE     CLOUDY    72  52  49 S12       29.96R
WINNER         FAIR      75  63  66 S14       29.94R
$$

SDZ004>011-016>023-039-040-280500-
NORTHEAST SOUTH DAKOTA

CITY           SKY/WX    TMP DP  RH WIND       PRES   REMARKS
ABERDEEN       PTCLDY    65  60  84 SE9       29.96R
WATERTOWN      CLEAR     66  62  87 SE8       30.02R
BROOKINGS      CLEAR     65  62  90 SE8       30.03R
$$

SDZ017-020-022-023-036>040-048>070-280500-
SOUTHEAST SOUTH DAKOTA

CITY           SKY/WX    TMP DP  RH WIND       PRES   REMARKS
SIOUX FALLS    PTCLDY    69  65  86 SE7       30.04R
HURON          CLEAR     70  63  78 SE10      29.97R
CHAMBERLAIN    CLEAR     72  66  82 SE10      29.94S
MITCHELL       CLEAR     71  65  81 SE13      29.98R
YANKTON        CLEAR     66  63  88 E6        30.01R
$$

ABBREVIATIONS USED IN REMARKS
   TC - TEMPERATURE IN CELSIUS
  WCI - WIND CHILL INDEX
   HX - HEAT INDEX
  VSB - VISIBILITY




USA.gov is the U.S. government's official web portal to all federal, state and local government web resources and services.